Wind_Speed
18 18 18 18 19 17 16 17 17 17 15 15 14 13 13 12 12 11 11 10 9 7 7 8 9 10 10 9 10 11 12 12 11 11 12 12 13 14 14 13 13 12 12 12 12 12 12 13 12
18 18 17 19 17 16 16 17 18 17 16 15 15 14 14 13 12 11 11 10 9 8 8 8 9 10 9 9 10 10 11 11 12 12 12 12 13 14 14 13 13 12 12 12 12 12 12 12 12
18 18 18 18 16 16 17 17 18 18 17 16 16 15 14 14 13 11 11 11 10 9 8 8 9 10 10 10 10 10 11 11 11 12 12 12 13 14 14 13 13 13 12 12 12 12 12 12 12
18 18 18 17 16 17 17 18 19 19 19 17 16 15 15 14 13 12 11 10 9 9 9 8 8 10 10 10 10 10 10 11 10 10 11 11 12 13 14 13 13 13 12 12 12 11 11 11 11
17 18 17 16 16 17 18 18 19 20 20 18 17 17 15 15 13 12 11 10 9 9 9 8 8 9 9 10 10 10 10 10 10 10 11 11 11 12 12 13 12 12 12 13 12 11 11 10 11
17 17 15 15 16 17 18 19 20 20 20 19 18 17 16 15 14 13 11 10 9 9 8 8 8 8 9 9 9 9 9 9 9 9 10 11 11 11 11 12 12 11 11 12 11 11 11 11 11
16 15 13 14 16 17 18 18 20 20 20 19 18 17 16 16 15 13 12 11 10 9 8 8 8 8 9 9 9 8 8 9 9 10 10 10 10 10 10 11 11 11 11 11 11 10 10 11 11
15 14 13 14 15 16 17 18 19 20 20 19 18 17 16 16 15 14 13 11 11 10 9 8 8 8 8 9 9 9 8 9 9 9 9 9 10 10 10 10 10 10 10 9 10 9 10 10 10
14 13 13 14 15 16 17 18 19 19 19 19 18 17 16 15 15 14 13 12 11 11 10 9 9 9 9 9 10 10 9 8 8 8 8 9 9 10 9 9 9 9 9 9 9 9 9 8 8
13 11 12 13 15 16 17 18 19 19 19 19 18 17 16 15 15 14 14 13 12 11 11 11 11 11 10 10 10 9 9 9 9 8 8 8 8 8 8 8 8 8 8 8 8 8 7 7 6
11 10 11 12 14 16 17 18 18 19 19 18 17 17 17 16 15 14 14 13 12 12 12 12 12 12 11 10 10 9 9 9 8 8 8 7 7 7 7 7 7 7 8 8 7 7 6 6 5
9 10 10 11 13 15 17 18 18 18 18 17 17 17 16 15 14 14 14 13 13 12 12 12 12 12 11 10 9 9 9 8 8 8 7 7 6 6 7 7 6 6 6 6 6 5 5 5 4
8 9 9 10 12 14 15 17 18 18 17 17 17 17 16 15 14 13 13 13 13 12 11 11 11 11 11 11 10 9 8 8 7 7 6 6 6 6 6 7 6 6 6 6 5 4 4 4 4
7 7 7 8 10 12 14 15 17 17 17 16 16 16 16 14 14 13 13 12 12 11 11 11 11 10 10 10 10 9 9 8 7 6 5 5 4 4 5 5 5 5 4 4 4 3 3 3 3
5 6 6 7 8 10 11 14 16 16 16 16 15 15 15 14 13 12 13 12 12 11 11 11 10 10 10 10 10 9 9 8 7 6 5 4 4 4 3 3 3 4 3 3 3 3 2 2 3
4 4 4 5 6 7 9 11 13 14 15 14 14 14 13 12 12 11 11 12 12 11 11 11 10 10 10 10 10 9 9 8 7 6 6 5 4 3 2 3 3 2 2 2 2 2 2 2 2
3 2 1 2 4 5 7 9 10 11 13 13 13 13 12 12 11 11 10 11 11 11 11 11 10 10 10 9 9 9 9 8 8 8 7 6 5 3 3 3 3 2 1 1 1 1 2 2 3
7 5 2 1 2 3 5 7 8 9 10 11 12 12 12 11 11 10 10 10 10 10 10 10 10 10 10 9 9 9 9 8 8 8 8 7 6 5 4 3 3 2 1 1 0 1 1 2 3
9 7 5 3 1 2 3 5 6 7 8 9 10 10 10 10 10 9 9 9 10 10 10 10 10 9 9 9 9 9 9 8 8 8 8 8 7 6 5 4 3 2 1 1 0 1 1 2 3
11 9 7 5 3 1 2 3 5 6 6 7 8 8 9 9 8 8 8 8 8 9 9 9 9 9 9 9 9 9 8 8 8 8 8 8 7 6 5 4 4 3 3 1 1 1 2 2 3
13 11 10 7 5 3 3 3 4 5 5 6 7 7 7 8 8 7 7 7 7 8 8 8 8 8 8 8 8 8 8 8 8 7 7 7 7 7 5 4 3 2 2 2 2 2 3 3 4
15 13 12 9 7 6 4 4 6 5 5 6 6 5 6 7 8 7 6 6 7 7 7 8 7 7 8 8 8 7 8 8 7 6 6 7 7 6 6 4 3 3 3 3 3 4 4 5 5
18 16 14 12 10 8 7 5 6 6 6 6 5 5 5 6 7 6 6 6 7 7 7 7 7 7 7 7 7 7 7 7 7 7 6 6 6 6 6 5 4 3 3 3 4 5 6 6 7
21 18 17 15 12 11 10 7 7 7 7 6 5 5 5 5 6 5 5 5 6 6 6 6 6 7 7 7 7 6 6 6 7 7 7 6 5 5 6 5 5 4 4 4 5 6 7 7 8
24 20 18 16 15 14 12 10 8 8 7 6 6 6 6 6 5 5 5 5 5 5 5 5 6 6 6 6 6 6 5 5 5 6 7 7 6 6 6 6 6 6 6 6 7 7 8 8 9
26 23 21 18 16 15 15 11 9 9 8 7 6 6 6 6 6 5 5 5 5 4 4 5 5 6 6 6 6 6 5 5 5 5 5 6 6 6 7 7 7 7 7 7 8 9 9 10 11
29 27 24 21 20 17 16 14 11 11 10 8 7 6 6 6 6 6 6 6 5 5 4 5 5 5 6 6 5 5 6 5 5 5 5 6 6 6 7 7 7 8 8 9 9 10 10 11 12
31 29 28 25 22 20 18 16 13 12 11 10 9 8 8 8 8 7 7 6 6 5 5 5 4 5 5 6 6 5 6 5 5 6 6 6 7 7 8 8 9 9 9 10 10 11 11 12 12
31 30 30 27 25 22 18 17 16 14 13 12 11 10 10 9 9 8 8 7 7 6 6 6 5 5 6 6 6 6 6 6 6 6 6 7 8 8 9 9 10 10 10 11 11 11 12 12 13
31 30 30 29 27 24 21 18 18 15 14 14 13 12 12 11 10 9 9 8 8 7 7 7 6 5 6 7 7 7 7 7 7 7 8 8 9 9 9 10 10 11 11 11 11 12 13 13 14
Wind_Direction
65 60 59 60 61 60 62 66 66 66 67 68 69 69 71 71 75 79 80 81 80 82 87 91 90 93 98 102 108 112 111 112 112 113 117 120 120 121 119 120 123 123 124 125 125 125 124 122 121
63 60 60 60 63 61 61 63 64 65 67 68 68 67 68 69 72 76 78 78 78 77 83 89 90 91 94 100 107 110 115 114 115 117 118 120 123 122 123 124 123 125 126 126 127 128 124 123 120
64 61 61 62 62 63 62 62 63 64 65 66 66 67 67 67 68 73 75 75 74 75 78 85 88 90 94 97 98 105 113 112 113 114 117 117 120 122 124 126 126 125 128 131 131 133 126 125 123
65 62 61 61 61 62 62 62 63 63 63 63 64 67 66 65 67 71 73 72 72 73 75 79 85 92 96 97 98 101 108 111 110 110 112 115 120 124 122 126 128 126 127 129 128 125 124 124 125
67 63 60 59 60 60 61 62 62 63 62 62 62 64 65 65 65 69 73 72 72 72 72 75 81 92 97 99 101 104 105 111 111 109 109 112 118 122 124 124 126 126 126 126 120 118 119 122 124
68 66 63 61 60 60 60 61 62 62 61 60 60 62 62 63 62 67 70 69 69 69 72 73 79 87 94 99 99 103 104 109 113 109 108 112 115 117 122 121 123 124 125 126 123 121 120 124 125
71 69 65 62 60 59 60 60 61 60 59 58 59 60 61 62 61 63 66 65 64 67 69 69 78 86 90 96 98 100 102 105 110 110 109 110 112 118 119 119 119 120 121 123 121 120 121 125 123
74 69 64 61 61 60 61 61 60 59 57 57 58 59 60 61 60 61 66 66 66 69 70 70 76 84 89 93 98 101 104 105 105 111 111 114 113 117 118 117 121 125 123 124 124 124 122 125 127
74 72 66 65 64 62 61 61 59 58 57 56 57 58 58 59 59 60 64 66 68 69 72 74 76 82 84 90 96 97 99 103 105 108 111 115 115 117 119 119 122 126 129 128 129 127 124 124 127
78 77 70 67 65 62 61 60 59 57 56 56 56 57 58 58 58 58 62 67 68 70 73 75 78 81 84 90 95 96 98 99 101 105 109 114 116 119 121 121 124 129 134 134 133 132 131 130 131
82 79 73 67 65 62 60 60 58 56 55 53 54 56 56 59 59 57 59 66 69 71 72 75 78 79 80 83 87 90 91 96 100 105 107 113 120 124 125 128 132 134 138 137 135 138 141 140 142
84 78 73 69 65 62 60 59 57 55 54 51 52 54 56 57 58 58 59 63 67 68 71 71 73 73 75 79 83 85 88 91 94 98 99 102 115 125 128 129 133 140 146 146 143 142 144 151 154
89 78 70 66 63 61 59 58 56 53 52 51 51 52 54 55 57 57 58 63 65 67 67 69 69 70 71 74 78 79 82 90 93 93 93 94 106 117 121 125 130 133 143 148 150 145 147 158 167
93 83 71 64 62 60 57 55 54 52 51 50 50 50 50 51 53 54 56 59 62 64 65 65 66 68 68 68 69 70 71 80 85 86 83 88 99 111 118 124 133 136 141 151 153 155 161 177 187
106 87 74 63 61 59 56 53 51 50 50 47 46 47 47 48 50 52 55 57 59 61 63 61 60 61 66 69 67 67 67 71 80 83 80 80 90 105 120 123 131 132 135 150 160 169 180 192 208
135 94 69 60 56 55 55 49 47 47 47 44 43 44 43 44 47 51 53 55 56 59 61 60 59 59 62 65 66 64 62 66 72 69 66 70 78 87 108 127 137 131 122 136 161 182 199 218 233
174 149 105 44 42 47 52 48 42 41 42 40 39 39 39 40 43 47 49 51 53 56 57 58 57 58 60 60 59 57 57 61 64 62 65 68 72 80 107 128 143 144 129 145 162 209 237 238 244
207 208 217 279 17 35 43 41 36 35 36 34 32 32 35 38 40 43 45 47 49 53 55 55 55 57 59 60 59 55 54 58 60 60 60 63 68 81 99 108 126 134 124 135 189 258 279 263 262
208 211 220 238 288 9 25 23 22 24 25 22 22 23 25 31 37 38 40 45 48 50 52 54 54 54 56 58 55 53 52 54 56 58 58 58 63 76 80 88 88 86 90 85 17 314 316 301 286
213 216 227 236 250 275 337 360 7 5 8 9 12 15 19 23 30 35 38 42 43 43 48 51 52 51 52 53 53 52 50 52 52 54 56 55 59 67 71 74 74 71 75 76 37 355 315 300 299
221 221 229 232 236 252 284 326 342 351 353 357 1 5 8 15 20 26 32 38 40 38 40 45 47 47 49 50 50 47 45 50 55 54 53 53 56 58 64 73 71 64 66 56 19 357 336 318 311
228 227 231 235 236 253 265 281 308 321 334 343 349 354 360 6 10 15 22 30 37 36 35 39 41 38 40 43 44 41 42 48 49 50 51 51 51 48 49 55 63 64 50 30 11 356 346 336 328
230 234 237 240 243 249 261 262 279 302 317 328 330 336 343 352 360 6 13 21 28 30 31 36 38 36 36 37 37 40 45 44 41 43 49 48 45 41 38 39 39 37 25 12 360 351 345 336 328
232 236 240 244 246 250 251 254 263 284 304 309 314 315 318 331 346 357 5 13 19 21 23 31 35 32 31 30 30 35 39 39 37 36 36 35 33 25 24 24 16 10 2 353 346 341 339 335 329
231 234 238 242 247 250 251 249 252 265 279 292 298 304 306 314 325 339 350 358 5 9 15 23 28 28 27 25 25 27 31 31 32 32 30 28 24 18 14 9 359 349 341 337 335 335 332 331 327
231 231 232 236 244 251 256 251 252 258 265 276 286 292 301 307 315 322 332 340 347 354 3 11 18 21 21 19 19 19 21 24 25 24 21 16 12 9 5 357 347 339 333 328 325 326 328 326 324
230 229 231 237 242 244 251 255 252 252 258 263 272 282 290 297 303 306 312 324 333 336 341 354 3 10 11 10 10 7 9 12 12 9 8 8 3 357 354 351 345 337 331 327 323 322 323 323 322
229 230 232 233 238 242 251 255 251 249 255 258 267 274 279 286 290 295 299 305 313 318 322 333 346 353 356 356 354 352 355 356 358 357 356 356 353 349 346 344 342 337 330 327 325 323 323 324 324
228 230 232 234 236 238 247 252 252 249 249 256 263 267 274 281 285 287 292 294 295 298 305 315 324 334 342 344 342 339 337 339 343 343 343 343 342 342 341 340 341 337 331 328 328 327 326 325 325
229 230 231 233 237 238 238 247 252 245 245 251 257 262 270 274 277 280 284 288 287 288 292 300 303 312 321 329 331 330 327 327 329 333 334 332 334 337 338 337 339 337 334 330 327 326 325 324 323
Height
5902 5901 5900 5899 5899 5899 5896 5894 5892 5889 5888 5886 5885 5883 5882 5881 5881 5882 5879 5877 5876 5876 5875 5874 5873 5873 5872 5871 5871 5871 5871 5871 5871 5871 5871 5871 5872 5873 5874 5875 5876 5877 5878 5879 5880 5881 5882 5883 5883
5904 5903 5903 5902 5902 5901 5899 5896 5893 5891 5890 5887 5886 5885 5883 5882 5882 5880 5879 5878 5878 5877 5876 5876 5875 5874 5874 5873 5872 5872 5873 5873 5873 5873 5873 5873 5874 5874 5875 5876 5877 5879 5880 5880 5881 5883 5883 5884 5885
5907 5906 5906 5906 5904 5903 5901 5898 5895 5893 5891 5889 5888 5887 5885 5884 5883 5882 5881 5880 5880 5879 5878 5877 5876 5876 5876 5875 5875 5874 5874 5874 5874 5874 5875 5875 5875 5876 5876 5878 5879 5880 5881 5882 5883 5884 5885 5886 5887
5910 5909 5909 5909 5906 5905 5902 5900 5897 5895 5893 5891 5890 5888 5886 5885 5884 5884 5883 5882 5881 5881 5880 5879 5878 5878 5877 5877 5876 5876 5876 5876 5876 5876 5876 5876 5877 5877 5878 5879 5880 5881 5882 5883 5884 5885 5886 5887 5888
5912 5912 5913 5911 5909 5907 5904 5902 5899 5897 5895 5893 5892 5890 5889 5887 5886 5885 5884 5884 5883 5882 5882 5881 5880 5880 5879 5879 5878 5878 5878 5878 5878 5878 5878 5878 5878 5879 5880 5881 5881 5882 5883 5885 5886 5887 5888 5889 5890
5915 5915 5916 5914 5911 5909 5907 5904 5902 5899 5897 5896 5894 5892 5891 5890 5888 5887 5886 5885 5885 5884 5883 5882 5882 5881 5881 5880 5880 5880 5879 5879 5879 5879 5879 5879 5880 5881 5881 5882 5883 5884 5885 5886 5888 5889 5889 5891 5892
5918 5918 5918 5916 5914 5912 5909 5907 5904 5902 5900 5898 5896 5895 5893 5892 5890 5889 5888 5887 5886 5885 5885 5884 5883 5883 5882 5882 5882 5882 5881 5881 5881 5881 5881 5881 5882 5883 5883 5884 5885 5886 5887 5888 5889 5890 5891 5892 5893
5920 5921 5920 5918 5916 5914 5912 5909 5907 5904 5902 5901 5899 5897 5896 5895 5893 5892 5890 5889 5888 5887 5886 5885 5885 5884 5884 5884 5883 5883 5883 5883 5883 5883 5883 5883 5884 5884 5885 5885 5886 5887 5888 5890 5891 5892 5893 5894 5895
5922 5925 5923 5921 5919 5917 5914 5911 5909 5907 5905 5903 5901 5900 5899 5897 5895 5894 5893 5892 5891 5889 5888 5887 5887 5886 5886 5885 5885 5885 5885 5884 5884 5884 5884 5885 5885 5885 5886 5887 5888 5889 5890 5891 5892 5893 5894 5895 5896
5925 5926 5924 5922 5921 5919 5916 5914 5912 5910 5908 5906 5904 5902 5901 5899 5898 5897 5895 5894 5893 5892 5890 5889 5889 5888 5887 5887 5887 5886 5886 5886 5886 5886 5886 5886 5886 5887 5887 5888 5889 5890 5891 5892 5893 5894 5895 5896 5897
5927 5927 5925 5924 5922 5921 5918 5916 5914 5912 5910 5909 5907 5905 5904 5902 5901 5899 5898 5896 5895 5894 5893 5892 5891 5890 5889 5889 5888 5888 5888 5888 5887 5887 5887 5887 5888 5888 5889 5889 5890 5891 5892 5893 5894 5895 5896 5896 5897
5928 5928 5927 5925 5924 5922 5921 5919 5917 5915 5914 5912 5910 5908 5906 5905 5903 5902 5900 5899 5898 5897 5895 5894 5893 5892 5891 5891 5890 5890 5889 5889 5889 5889 5889 5889 5889 5889 5890 5891 5891 5892 5893 5893 5894 5895 5896 5897 5897
5929 5929 5928 5927 5926 5924 5923 5921 5920 5918 5916 5914 5912 5911 5909 5907 5906 5905 5903 5902 5900 5899 5898 5896 5895 5894 5893 5893 5892 5892 5891 5891 5890 5890 5890 5890 5890 5891 5891 5892 5892 5893 5893 5894 5895 5896 5896 5897 5897
5930 5930 5930 5929 5928 5926 5925 5924 5922 5920 5918 5917 5915 5913 5912 5910 5909 5907 5906 5904 5903 5901 5900 5898 5897 5896 5895 5894 5894 5893 5893 5892 5892 5892 5891 5891 5891 5891 5892 5892 5893 5893 5894 5895 5895 5896 5896 5897 5897
5931 5932 5932 5931 5930 5928 5927 5926 5924 5923 5921 5919 5917 5916 5914 5913 5911 5910 5908 5907 5905 5903 5901 5900 5899 5898 5897 5896 5895 5895 5894 5893 5893 5893 5892 5892 5892 5892 5892 5893 5893 5894 5894 5895 5895 5896 5896 5897 5897
5932 5933 5933 5932 5931 5930 5930 5929 5927 5925 5923 5921 5920 5918 5917 5915 5913 5912 5910 5909 5907 5905 5904 5902 5901 5900 5899 5898 5897 5896 5895 5895 5894 5893 5893 5892 5892 5893 5893 5893 5894 5894 5894 5895 5896 5896 5896 5896 5897
5933 5934 5934 5933 5932 5931 5931 5930 5928 5926 5925 5923 5922 5920 5919 5917 5915 5914 5912 5911 5909 5907 5906 5905 5903 5902 5900 5900 5899 5898 5897 5896 5895 5894 5894 5893 5893 5893 5893 5894 5894 5894 5895 5895 5895 5896 5896 5896 5896
5934 5934 5934 5934 5933 5932 5931 5931 5929 5928 5926 5925 5923 5922 5921 5919 5917 5916 5914 5913 5911 5909 5908 5907 5905 5904 5902 5901 5900 5900 5899 5898 5897 5896 5895 5894 5894 5894 5894 5894 5894 5895 5895 5895 5895 5896 5896 5895 5895
5932 5933 5934 5934 5933 5933 5932 5931 5930 5929 5928 5926 5925 5923 5922 5921 5919 5917 5916 5914 5913 5911 5910 5909 5907 5906 5904 5903 5902 5901 5900 5899 5898 5898 5897 5896 5895 5895 5895 5895 5895 5895 5895 5895 5895 5895 5895 5895 5895
5930 5932 5933 5933 5932 5933 5932 5932 5931 5930 5929 5927 5926 5925 5923 5922 5920 5919 5917 5916 5915 5913 5912 5910 5909 5907 5906 5905 5904 5903 5902 5901 5900 5899 5898 5897 5896 5896 5895 5895 5896 5895 5895 5895 5895 5895 5895 5894 5894
5928 5930 5931 5932 5932 5932 5932 5933 5932 5931 5929 5928 5926 5925 5924 5923 5921 5920 5919 5917 5916 5914 5913 5912 5910 5909 5908 5906 5905 5904 5903 5902 5901 5900 5899 5898 5897 5897 5896 5896 5896 5895 5895 5895 5894 5894 5894 5893 5892
5925 5927 5929 5930 5931 5932 5933 5934 5932 5930 5929 5928 5927 5926 5925 5924 5923 5921 5920 5918 5917 5916 5914 5913 5912 5910 5909 5908 5907 5905 5904 5903 5902 5901 5900 5899 5899 5898 5897 5896 5896 5895 5895 5895 5894 5893 5892 5892 5891
5922 5924 5926 5928 5929 5931 5931 5932 5933 5930 5929 5928 5927 5926 5925 5924 5923 5922 5921 5919 5918 5917 5915 5914 5912 5911 5910 5909 5908 5907 5906 5905 5904 5902 5901 5900 5899 5899 5898 5897 5896 5896 5895 5894 5894 5893 5892 5891 5890
5918 5921 5923 5925 5927 5929 5930 5931 5931 5929 5928 5927 5926 5926 5925 5924 5923 5922 5921 5920 5919 5917 5916 5915 5913 5912 5911 5910 5909 5908 5906 5905 5904 5903 5902 5901 5900 5899 5898 5897 5896 5896 5895 5894 5893 5892 5891 5889 5888
5914 5918 5921 5923 5925 5927 5927 5927 5929 5927 5927 5926 5925 5925 5924 5924 5923 5922 5921 5920 5919 5918 5917 5916 5914 5913 5912 5911 5909 5908 5907 5906 5905 5904 5902 5901 5900 5899 5898 5897 5896 5895 5894 5893 5892 5891 5890 5888 5887
5910 5915 5919 5922 5924 5925 5923 5924 5926 5925 5925 5925 5924 5924 5924 5923 5923 5922 5921 5920 5919 5918 5917 5916 5915 5914 5912 5911 5910 5909 5907 5906 5905 5904 5903 5902 5900 5899 5898 5897 5896 5895 5893 5892 5891 5890 5888 5887 5885
5905 5909 5914 5917 5918 5921 5921 5922 5923 5922 5923 5923 5923 5923 5922 5922 5922 5921 5920 5919 5919 5918 5917 5916 5915 5914 5913 5911 5910 5909 5908 5906 5905 5904 5903 5902 5900 5899 5898 5896 5895 5893 5892 5890 5889 5888 5886 5885 5883
5900 5904 5908 5911 5914 5916 5918 5919 5920 5920 5920 5921 5921 5921 5921 5921 5920 5920 5919 5919 5918 5917 5916 5916 5915 5914 5913 5911 5910 5909 5908 5906 5905 5904 5903 5901 5900 5899 5897 5895 5894 5892 5890 5889 5887 5885 5884 5882 5880
5894 5898 5901 5905 5909 5912 5915 5918 5916 5916 5917 5918 5918 5919 5919 5919 5919 5918 5918 5917 5917 5916 5915 5915 5914 5913 5912 5911 5910 5909 5907 5906 5904 5903 5902 5901 5899 5898 5896 5894 5892 5891 5889 5887 5885 5883 5882 5880 5878
5887 5891 5896 5900 5902 5906 5910 5915 5911 5913 5914 5914 5915 5916 5916 5916 5916 5916 5916 5915 5915 5914 5914 5913 5913 5912 5911 5910 5909 5908 5907 5905 5904 5902 5901 5900 5898 5897 5895 5893 5891 5889 5887 5885 5883 5881 5879 5877 5875